www.pogodaiklimat.ru

Погода и климат >> Архив погоды >> Южная Африка >> Скукуза


ПОГОДА в Скукузе

  • Прогноз погоды в Скукузе
  • Монитор погоды в Скукузе

АРХИВ ПОГОДЫ в Скукузе

Время (UTC), дата Ветер
(напр.,м/с)
 
Видим.   Явления Облачность Т
(С)
Тd
(С)
f
(%)
Тe
(С)
Тes
(С)
Комфортность P
(гПа)
Po
(гПа)
Тmin
(С)
Tmax
(С)
R
(мм)
R24
(мм)
S
(см)
06 20.03 СЗ 1 н/о н/о +23.1 +18.5 75 +29 +29 очень
душно
980.2 +17.5
09 20.03 С 2 н/о н/о +31.7 +19.6 49 +38 +38 очень
душно
979.5 +17.5 +31.9
12 20.03 С 2 н/о н/о +35.9 +17.5 34 +39 +39 очень
душно
976.5 +17.5 +36.3
03 21.03 штиль 0 н/о н/о +17.5 +15.8 90 +17 +17 980.4 +17.5 +38.1
06 21.03 Ю 1 н/о н/о +24.6 +19.0 71 +30 +30 очень
душно
982.5 +17.4
09 21.03 С 1 н/о н/о +30.7 +20.2 54 +37 +37 очень
душно
982.7 +17.4 +30.9
09 22.03 Ю 2 н/о н/о +25.9 +17.6 60 +30 +30 душно 987.1 +17.2 +27.3
12 22.03 Ю 3 н/о н/о +30.2 +19.1 51 +36 +36 очень
душно
985.2 +17.2 +30.2
15 22.03 ЮВ 3 н/о н/о +26.0 +18.5 63 +31 +31 очень
душно
985.2 +26.0 +30.4
03 23.03 З 1 н/о н/о +16.7 +15.2 91 +18 +18 987.8 +16.7 +30.4
12 23.03 Ю 2 н/о н/о +29.4 +18.1 51 +34 +34 очень
душно
986.2 +16.5 +29.5
15 23.03 Ю 2 н/о н/о +27.8 +17.5 53 +32 +32 душно 985.7 +26.5 +30.3
18 23.03 Ю 2 н/о н/о +21.0 +18.0 83 +26 +26 душно 987.1 +21.0 +30.3
21 23.03 Ю 1 н/о н/о +19.0 +17.1 89 +22 +22 комфорт 987.8 +19.0 +30.3
00 24.03 З 1 н/о н/о +17.5 +16.0 91 +19 +19 986.9 +17.5 +30.3
03 24.03 штиль 0 н/о н/о +16.8 +15.3 91 +17 +17 986.8 +16.6 +30.3
06 24.03 ЮЗ 1 н/о н/о +22.4 +18.6 79 +28 +28 душно 987.6 +16.1
09 24.03 С 2 н/о н/о +26.4 +17.3 57 +30 +30 душно 986.0 +16.1 +27.9
12 24.03 В 2 н/о н/о +30.4 +15.1 39 +33 +33 душно 982.8 +16.1 +31.7
15 24.03 В 1 н/о н/о +30.4 +15.1 39 +33 +33 душно 981.1 +29.8 +32.0
18 24.03 штиль 0 н/о н/о +20.6 +16.8 79 +24 +24 комфорт 981.5 +20.6 +32.0
21 24.03 штиль 0 н/о н/о +17.8 +15.6 87 +18 +18 982.6 +17.8 +32.0
00 25.03 З 1 н/о н/о +16.3 +14.6 90 +17 +17 981.9 +16.3 +32.0
03 25.03 С 1 н/о н/о +15.6 +14.1 91 +16 +16 981.5 +15.3 +32.0
06 25.03 ЮЗ 2 н/о н/о +21.5 +17.5 78 +26 +26 душно 981.8 +14.7
09 25.03 СЗ 2 н/о н/о +29.4 +17.8 50 +34 +34 очень
душно
979.3 +14.7 +29.4
12 25.03 СВ 2 н/о н/о +35.5 +16.6 33 +38 +38 очень
душно
976.3 +14.7 +35.8
15 25.03 ЮВ 2 н/о н/о +34.5 +18.0 38 +39 +39 очень
душно
975.2 +34.5 +37.7
18 25.03 Ю 3 н/о н/о +26.2 +19.4 66 +32 +32 очень
душно
978.4 +26.2 +37.7
21 25.03 ЮЗ 1 н/о н/о +21.7 +17.7 78 +26 +26 душно 981.4 +21.7 +37.7
00 26.03 Ю 2 н/о н/о +21.7 +17.1 75 +26 +26 душно 981.5 +21.6 +37.7
03 26.03 штиль 0 н/о н/о +21.2 +17.6 80 +25 +25 комфорт 982.5 +21.2 +37.7
06 26.03 Ю 2 н/о н/о +22.5 +16.8 70 +27 +27 душно 984.9 +20.5
09 26.03 Ю 4 н/о н/о +24.5 +17.1 63 +28 +28 душно 986.2 +20.5 +24.8
12 26.03 Ю 3 н/о н/о +24.8 +17.6 64 +29 +29 душно 985.7 +20.5 +26.9
15 26.03 Ю 3 н/о н/о +21.7 +16.7 73 +26 +26 душно 986.2 +21.7 +26.9
18 26.03 ЮЗ 2 н/о н/о +20.3 +16.6 79 +24 +24 комфорт 988.7 +20.2 +26.9

 

Местоположение метеостанции Скукуза (Южная Африка): широта -24.98 долгота 31.60 высота над уровнем моря 271 м.

В архиве по умолчанию представлена погода в Скукузе за последнюю неделю. Архивные данные за месяц целиком и за предыдущие месяцы, начиная с января 2011 года, Вы можете получить, выбрав интересующий диапазон дат из раскрывающегося списка и нажав кнопку "Ввод!".


*Определитесь, кто Вы:
робот инопланетянин человек

Внимание! Время в таблицах - всемирное. Для получения местного времени необходимо прибавить поправку, которая равна 2 ч.

Смотрите также архив погоды в соседних городах и на ближайших метеорологических станциях:

Погода в Коматидрааи (Южная Африка) (66 км)
Погода в Граскопе (Южная Африка) (76 км)
Погода в Граскоп-Скуле (Южная Африка) (78 км)
Погода на Базе ВВС Hoedspruit (Южная Африка) (89 км)
Погода в Хоэдспруите (Южная Африка) (89 км)
Погода в Мбомбеле (Южная Африка) (90 км)
Погода в Вувулане (Свазиленд) (100 км)
Погода в Майиване (Свазиленд) (102 км)
Погода в Линденбурге (Южная Африка) (114 км)
Погода в Линденбурге 2 (Южная Африка) (115 км)

Пояснения к столбцам:

Ветер - указаны скорость ветра в м/с - средняя за 10 мин, порывы в срок и между сроками (в фигурных скобках) и направление, откуда дует ветер: С - северный, СВ - северо-восточный, В - восточный, ЮВ - юго-восточный, Ю - южный, ЮЗ - юго-западный, З - западный, СЗ - северо-западный.
Видимость - горизонтальная дальность видимости в метрах или километрах. При видимости от 1 до 10 км при отсутствии осадков обычно наблюдается дымка, при ухудшении видимости до 1 км и менее - туман. В сухую погоду видимость может ухудшаться дымом, пылью или мглою.
Явления - указаны атмосферные явления, наблюдавшиеся в срок или в последний час перед сроком; фигурными скобками обозначены явления, наблюдавшиеся между сроками (за 1-3 часа до срока); квадратными скобками обозначены град или гололедные отложения с указанием их диаметра в мм.
Облачность - указаны через наклонную черту общая и нижняя облачность в баллах и высота нижней границы облаков в метрах; квадратными скобками обозначены формы облаков: Ci - перистые, Cs - перисто-слоистые, Cc - перисто-кучевые, Ac - высококучевые, As - высокослоистые, Sc - слоисто-кучевые, Ns - слоисто-дождевые, Cu - кучевые, Cb - кучево-дождевые. Подробнее классификацию облаков см. в Атласе облаков (PDF).
T - Температура воздуха - температура, измеренная на высоте 2 м над землей.
Td - Температура точки росы - температура, при понижении до которой содержащийся в воздухе водяной пар достигнет насыщения.
f - Относительная влажность воздуха - влажноcть воздуха, измеренная на высоте 2 м над землей.
Te - Эффективная температура - температура, которую ощущает одетый по сезону человек в тени. Характеристика душности погоды. При расчете учитывается влияние влажности воздуха и скорости ветра на теплоощущения человека.
Tes - Эффективная температура на солнце - температура, которую ощущает человек, с поправкой на солнечный нагрев. Характеристика знойности погоды. Зависит от высоты солнца над горизонтом, облачности и скорости ветра. Ночью, в пасмурную погоду, а также при ветре 12 м/с и более поправка равна нулю.
P - Атмосферное давление - приведенное к уровню моря атмосферное давление.
Po - Атмосферное давление - измеренное на уровне метеостанции атмосферное давление.
Tmin - Минимальная температура - минимум температуры воздуха на высоте 2 м над землей.
Tmax - Максимальная температура - максимум температуры воздуха на высоте 2 м над землей.
R - Количество осадков - Количество выпавших осадков за период времени, мм. При наведении курсора мыши на число - период времени, за который выпало указанное количество осадков.
R24 - Количество осадков - Количество выпавших осадков за 24 часа, мм.
S - Снежный покров - Высота снежного покрова, см. При наведении курсора мыши на число - состояние снежного покрова и степень покрытия местности в баллах.